• In Uzbekistan
  • List of Countries
  • For 7 days
  • Water Temperature
  • Satellite Maps
  • Weather Map
  • Weather Widgets
  • user-avatar
    Login

    Hourly Weather Førde

    Today, 23 February, Saturday

    Time Temperature Precipitation Wind Pressure Humidity
    00:00 +2°C° 0 mm 3 mps 721 mmHg 89%
    01:00 +2°C° 0 mm 3 mps 720 mmHg 88%
    02:00 +2°C° 0 mm 3 mps 720 mmHg 87%
    03:00 +2°C° 0 mm 3 mps 719 mmHg 86%
    04:00 +2°C° 0 mm 3 mps 719 mmHg 85%
    05:00 +2°C° 0 mm 3 mps 719 mmHg 84%
    06:00 +2°C° 0 mm 3 mps 719 mmHg 79%
    07:00 +2°C° 0 mm 3 mps 719 mmHg 79%
    08:00 +2°C° 0 mm 3 mps 719 mmHg 79%
    09:00 +3°C° 0 mm 3 mps 719 mmHg 78%
    10:00 +3°C° 0 mm 3 mps 719 mmHg 79%
    11:00 +4°C° 0 mm 3 mps 719 mmHg 79%
    12:00 +5°C° 0 mm 3 mps 719 mmHg 79%
    13:00 +4°C° 0 mm 3 mps 718 mmHg 80%
    14:00 +4°C° 0 mm 3 mps 718 mmHg 81%
    15:00 +4°C° 0 mm 3 mps 718 mmHg 82%
    16:00 +3°C° 0 mm 3 mps 718 mmHg 83%
    17:00 +2°C° 0 mm 3 mps 717 mmHg 85%
    18:00 +2°C° 0 mm 3 mps 717 mmHg 86%
    19:00 +2°C° 0 mm 3 mps 717 mmHg 87%
    20:00 +1°C° 0 mm 3 mps 717 mmHg 88%
    21:00 0°C° 0 mm 4 mps 717 mmHg 89%
    22:00 0°C° 0.7 mm 4 mps 717 mmHg 91%
    23:00 0°C° 0.7 mm 4 mps 717 mmHg 93%

    Tomorrow, 24 February, Sunday

    Time Temperature Precipitation Wind Pressure Humidity
    00:00 0°C° 0.7 mm 4 mps 717 mmHg 95%
    01:00 +1°C° 0.8 mm 4 mps 717 mmHg 95%
    02:00 +1°C° 0.8 mm 4 mps 718 mmHg 96%
    03:00 +1°C° 0.8 mm 4 mps 718 mmHg 97%
    04:00 +1°C° 0.3 mm 4 mps 718 mmHg 97%
    05:00 +2°C° 0.3 mm 3 mps 718 mmHg 97%
    06:00 +2°C° 0.3 mm 3 mps 719 mmHg 98%
    07:00 +2°C° 0.1 mm 3 mps 719 mmHg 97%
    08:00 +3°C° 0.1 mm 2 mps 720 mmHg 97%
    09:00 +2°C° 0.1 mm 2 mps 720 mmHg 97%
    10:00 +3°C° 0.1 mm 2 mps 721 mmHg 92%
    11:00 +4°C° 0.1 mm 1 mps 721 mmHg 88%
    12:00 +4°C° 0.1 mm 1 mps 721 mmHg 83%
    13:00 +4°C° 0 mm 1 mps 721 mmHg 83%
    14:00 +4°C° 0 mm 1 mps 722 mmHg 83%
    15:00 +3°C° 0 mm 1 mps 722 mmHg 82%
    16:00 +3°C° 0 mm 1 mps 722 mmHg 84%
    17:00 +2°C° 0 mm 1 mps 722 mmHg 86%
    18:00 +1°C° 0 mm 1 mps 722 mmHg 88%
    19:00 +1°C° 0 mm 1 mps 722 mmHg 86%
    20:00 +1°C° 0 mm 1 mps 722 mmHg 84%
    21:00 +1°C° 0 mm 1 mps 722 mmHg 82%
    22:00 -1°C° 0 mm 2 mps 722 mmHg 78%
    23:00 -1°C° 0 mm 2 mps 722 mmHg 74%

    Day after tomorrow, 25 February, Monday

    Time Temperature Precipitation Wind Pressure Humidity
    00:00 -1°C° 0 mm 2 mps 722 mmHg 70%
    01:00 -1°C° 0 mm 2 mps 722 mmHg 68%
    02:00 -1°C° 0 mm 2 mps 722 mmHg 66%
    03:00 -1°C° 0 mm 2 mps 722 mmHg 64%
    04:00 +1°C° 0 mm 2 mps 721 mmHg 64%
    05:00 +1°C° 0 mm 2 mps 721 mmHg 63%
    06:00 +1°C° 0 mm 2 mps 721 mmHg 63%
    07:00 +1°C° 0.3 mm 2 mps 720 mmHg 68%
    08:00 +2°C° 0.3 mm 2 mps 720 mmHg 74%
    09:00 +2°C° 0.3 mm 2 mps 720 mmHg 79%
    10:00 +2°C° 0.2 mm 2 mps 720 mmHg 81%
    11:00 +2°C° 0.2 mm 2 mps 720 mmHg 83%
    12:00 +2°C° 0.2 mm 2 mps 720 mmHg 85%
    13:00 +2°C° 0.1 mm 2 mps 720 mmHg 87%
    14:00 +3°C° 0.1 mm 2 mps 720 mmHg 88%
    15:00 +3°C° 0.1 mm 2 mps 720 mmHg 90%
    16:00 +3°C° 0.1 mm 2 mps 720 mmHg 91%
    17:00 +3°C° 0.1 mm 2 mps 720 mmHg 92%
    18:00 +4°C° 0.1 mm 1 mps 720 mmHg 92%
    19:00 +4°C° 0.2 mm 1 mps 720 mmHg 93%
    20:00 +4°C° 0.2 mm 1 mps 719 mmHg 93%
    21:00 +4°C° 0.2 mm 1 mps 719 mmHg 94%
    22:00 +3°C° 0.2 mm 2 mps 719 mmHg 94%
    23:00 +3°C° 0.2 mm 2 mps 718 mmHg 94%

    26 February, Tuesday

    Time Temperature Precipitation Wind Pressure Humidity
    00:00 +3°C° 0.2 mm 2 mps 718 mmHg 94%
    01:00 +4°C° 0.1 mm 2 mps 718 mmHg 94%
    02:00 +4°C° 0.1 mm 2 mps 717 mmHg 94%
    03:00 +4°C° 0.1 mm 2 mps 717 mmHg 93%
    04:00 +4°C° 0 mm 2 mps 717 mmHg 93%
    05:00 +3°C° 0 mm 2 mps 716 mmHg 93%
    06:00 +3°C° 0 mm 2 mps 716 mmHg 93%
    07:00 +3°C° 0 mm 2 mps 716 mmHg 92%
    08:00 +4°C° 0 mm 2 mps 716 mmHg 91%
    09:00 +4°C° 0 mm 2 mps 716 mmHg 89%
    10:00 +4°C° 0 mm 2 mps 716 mmHg 86%
    11:00 +4°C° 0 mm 3 mps 716 mmHg 83%
    12:00 +4°C° 0 mm 3 mps 716 mmHg 80%
    13:00 +4°C° 0.4 mm 3 mps 716 mmHg 85%
    14:00 +4°C° 0.4 mm 2 mps 717 mmHg 90%
    15:00 +3°C° 0.4 mm 2 mps 717 mmHg 95%
    16:00 +4°C° 0.1 mm 1 mps 717 mmHg 96%
    17:00 +4°C° 0.1 mm 1 mps 717 mmHg 97%
    18:00 +3°C° 0.1 mm 1 mps 717 mmHg 98%
    19:00 +3°C° 0 mm 1 mps 717 mmHg 97%
    20:00 +2°C° 0 mm 1 mps 717 mmHg 97%
    21:00 +2°C° 0 mm 1 mps 717 mmHg 97%
    22:00 +2°C° 0 mm 1 mps 717 mmHg 96%
    23:00 +2°C° 0 mm 1 mps 717 mmHg 95%

    27 February, Wednesday

    Time Temperature Precipitation Wind Pressure Humidity
    00:00 +1°C° 0 mm 1 mps 717 mmHg 95%
    01:00 +1°C° 0 mm 1 mps 717 mmHg 94%
    02:00 +1°C° 0 mm 1 mps 717 mmHg 93%
    03:00 -1°C° 0 mm 2 mps 716 mmHg 92%
    04:00 -1°C° 0 mm 2 mps 716 mmHg 90%
    05:00 -1°C° 0 mm 2 mps 715 mmHg 87%
    06:00 -1°C° 0 mm 2 mps 715 mmHg 85%
    07:00 -1°C° 0 mm 2 mps 715 mmHg 82%
    08:00 +1°C° 0 mm 2 mps 714 mmHg 79%
    09:00 +1°C° 0 mm 2 mps 713 mmHg 76%
    10:00 +2°C° 0 mm 2 mps 713 mmHg 73%
    11:00 +3°C° 0 mm 1 mps 712 mmHg 71%
    12:00 +4°C° 0 mm 1 mps 711 mmHg 69%
    13:00 +3°C° 0 mm 1 mps 710 mmHg 72%
    14:00 +3°C° 0 mm 1 mps 710 mmHg 74%
    15:00 +3°C° 0 mm 1 mps 709 mmHg 76%
    16:00 +3°C° 0 mm 1 mps 708 mmHg 78%
    17:00 +2°C° 0 mm 1 mps 707 mmHg 80%
    18:00 +2°C° 0 mm 1 mps 707 mmHg 82%
    19:00 +2°C° 0 mm 1 mps 706 mmHg 82%
    20:00 +2°C° 0 mm 1 mps 706 mmHg 82%
    21:00 +2°C° 0 mm 1 mps 705 mmHg 83%
    22:00 +2°C° 0.1 mm 1 mps 705 mmHg 84%
    23:00 +1°C° 0.1 mm 1 mps 705 mmHg 85%

    28 February, Thursday

    Time Temperature Precipitation Wind Pressure Humidity
    00:00 -1°C° 0.1 mm 2 mps 704 mmHg 86%
    01:00 -1°C° 0.2 mm 2 mps 704 mmHg 89%
    02:00 -1°C° 0.2 mm 2 mps 704 mmHg 92%
    03:00 -1°C° 0.2 mm 2 mps 704 mmHg 95%
    04:00 -1°C° 0.2 mm 2 mps 704 mmHg 95%
    05:00 -1°C° 0.2 mm 2 mps 704 mmHg 94%
    06:00 -1°C° 0.2 mm 2 mps 704 mmHg 94%
    07:00 -1°C° 0 mm 2 mps 704 mmHg 90%
    08:00 -1°C° 0 mm 2 mps 704 mmHg 86%
    09:00 -1°C° 0 mm 2 mps 704 mmHg 82%
    10:00 -1°C° 0 mm 2 mps 704 mmHg 78%
    11:00 +1°C° 0 mm 1 mps 705 mmHg 75%
    12:00 +2°C° 0 mm 1 mps 705 mmHg 72%
    13:00 +2°C° 0 mm 1 mps 705 mmHg 73%
    14:00 +1°C° 0 mm 1 mps 706 mmHg 74%
    15:00 +1°C° 0 mm 1 mps 706 mmHg 74%
    16:00 +1°C° 0 mm 1 mps 706 mmHg 77%
    17:00 0°C° 0 mm 1 mps 707 mmHg 80%
    18:00 0°C° 0 mm 1 mps 707 mmHg 84%
    19:00 0°C° 0 mm 1 mps 707 mmHg 85%
    20:00 0°C° 0 mm 1 mps 708 mmHg 86%
    21:00 -1°C° 0 mm 1 mps 708 mmHg 87%
    22:00 0°C° 0 mm 1 mps 709 mmHg 87%
    23:00 0°C° 0 mm 1 mps 709 mmHg 88%
    Show more